OPS 7218 (TRANSIT 16) 1 02807U 67048A 25039.90638251 .00000181 00000-0 26679-3 0 9998 2 02807 89.6776 4.0236 0018324 285.9066 127.5064 13.50631396841343 OPS 4947 (TRANSIT 17) 1 02965U 67092A 25039.92271862 .00000199 00000-0 27777-3 0 9994 2 02965 89.2338 47.9486 0049224 48.6626 17.9534 13.53357912829476 OPS 7034 (TRANSIT 18) 1 03133U 68012A 25039.89668427 .00000188 00000-0 27067-3 0 9998 2 03133 90.0216 272.9405 0073637 340.8737 29.8389 13.51476340527745 NNSS 19 (TRANSIT 19) 1 04507U 70067A 25039.91549734 .00000214 00000-0 28416-3 0 9998 2 04507 89.9792 234.7060 0173894 102.0048 260.0653 13.51207505680781 NNSS 20 (TRANSIT 20) 1 06909U 73081A 25039.86896789 .00000329 00000-0 32927-3 0 9993 2 06909 89.8391 259.9826 0153260 278.5819 79.8005 13.71267926761559 TRANSAT 1 10457U 77106A 25040.13361282 .00000123 00000-0 18029-3 0 9994 2 10457 89.6446 89.5693 0025265 2.7594 50.4687 13.48885270326325 NOVA 1 1 12458U 81044A 25039.74684568 .00000082 00000-0 17220-3 0 9999 2 12458 89.8561 95.7507 0012909 223.8018 255.5606 13.23229813111261 NOVA 3 1 15362U 84110A 25040.16196098 .00000106 00000-0 23155-3 0 9998 2 15362 90.1140 77.0692 0033727 94.4979 329.6098 13.22997712946727 OSCAR 30 1 15935U 85066A 25039.93352057 .00000139 00000-0 23756-3 0 9990 2 15935 90.1714 94.8058 0166562 228.8990 306.2071 13.36006462923560 OSCAR 24 1 15936U 85066B 25039.88565250 .00000143 00000-0 24470-3 0 9995 2 15936 90.1791 86.9288 0167335 235.4192 299.5669 13.35867444925462 POLAR BEAR 1 17070U 86088A 25039.93884104 .00000162 00000-0 15697-3 0 9991 2 17070 89.6125 196.0365 0038153 328.5564 142.2968 13.75167475917624 OSCAR 27 1 18361U 87080A 25039.79140233 .00000150 00000-0 23406-3 0 9994 2 18361 90.3625 67.9683 0104713 24.8798 335.7346 13.44830680834316 OSCAR 29 1 18362U 87080B 25039.87006413 .00000124 00000-0 19116-3 0 9999 2 18362 90.3637 68.4028 0106994 46.7592 126.0792 13.44383606833863 OSCAR 23 1 19070U 88033A 25039.96628133 .00000142 00000-0 27328-3 0 9998 2 19070 90.3179 6.8576 0188240 314.0768 111.8864 13.27729009781827 OSCAR 32 1 19071U 88033B 25039.90347438 .00000131 00000-0 25073-3 0 9992 2 19071 90.3184 6.9728 0186376 301.2767 110.1864 13.27897683781937 NOVA 2 1 19223U 88052A 25039.86085860 .00000108 00000-0 23463-3 0 9990 2 19223 89.9789 78.8030 0031878 136.7915 36.5922 13.22893789768903 OSCAR 25 1 19419U 88074A 25039.92008205 .00000173 00000-0 28145-3 0 9990 2 19419 90.0255 19.2748 0097580 42.5609 27.8613 13.42549599785236 OSCAR 31 1 19420U 88074B 25039.93254666 .00000123 00000-0 19623-3 0 9993 2 19420 90.0271 19.5766 0095659 36.7903 15.1063 13.42522596785345